Stations météo

réclame
Mon MeteoGroup
Dörnick, Allemagne (10150): Température de l'air & dewpoint: 12.01.2019 13:00:00 - 18.01.2019 13:00:00 (CET)Dörnick, Allemagne (10150): Température de l'air 5cm & Température de l'air -5cm: 12.01.2019 13:00:00 - 18.01.2019 13:00:00 (CET)Dörnick, Allemagne (10150): Température de l'air -20cm & Température de l'air -100cm: 12.01.2019 13:00:00 - 18.01.2019 13:00:00 (CET)Dörnick, Allemagne (10150): Vitesse du vent & gusts: 12.01.2019 13:00:00 - 18.01.2019 13:00:00 (CET)Dörnick, Allemagne (10150): Direction du vent: 12.01.2019 13:00:00 - 18.01.2019 13:00:00 (CET)Dörnick, Allemagne (10150): reduced air pressure: 12.01.2019 13:00:00 - 18.01.2019 13:00:00 (CET)Dörnick, Allemagne (10150): visibility: 12.01.2019 13:00:00 - 18.01.2019 13:00:00 (CET)Dörnick, Allemagne (10150): Ensoleillement: 12.01.2019 13:00:00 - 18.01.2019 13:00:00 (CET)Dörnick, Allemagne (10150): Quantités de précipitations: 12.01.2019 13:00:00 - 18.01.2019 13:00:00 (CET)
Date & Time tt [°C] td [°C] tt 5cm [°C] tt -5cm [°C] tt -20cm [°C] tt -100cm [°C] ff [km/h] ff [knt] fx [km/h] fx [knt] dd ppp [hPa] vv [km] sd [min] rr [mm]
18.01.2019 13:00:00 1,0 -1,0 0,3 0,5 2,6 6,6 13 7 24 13 W 1016,3 30 57 0,0
18.01.2019 12:00:00 0,2 -2,1 0,7 0,5 2,7 6,6 16 9 23 12 WSW 1016,0 13 60 0,0
18.01.2019 11:00:00 -0,7 -3,8 -0,6 0,5 2,7 6,6 16 8 26 14 WSW 1015,7 15 60 0,0
18.01.2019 10:00:00 -2,1 -5,6 -2,7 0,5 2,8 6,6 15 8 26 14 SW 1015,2 25 30 0,0
18.01.2019 09:00:00 -3,2 -5,7 -4,6 0,6 2,9 6,6 5 3 16 9 SW 1014,6 59 0 0,0
18.01.2019 08:00:00 -3,9 -5,8 -4,3 0,6 3,0 6,6 7 4 10 6 SW 1014,1 47 0 0,0
18.01.2019 07:00:00 -4,3 -6,0 -6,2 0,7 3,0 6,6 7 4 10 6 W 1013,8 47 0 0,0
18.01.2019 06:00:00 -4,3 -5,7 -7,0 0,8 3,1 6,6 8 4 11 6 W 1013,1 46 0 0,0
18.01.2019 05:00:00 -3,2 -5,1 -5,6 0,9 3,2 6,6 8 5 18 10 W 1012,3 56 0 0,0
18.01.2019 04:00:00 -2,2 -4,6 -4,0 1,0 3,3 6,6 11 6 23 13 WNW 1011,6 50 0 0,0
18.01.2019 03:00:00 -1,9 -4,1 -3,1 1,0 3,4 6,6 13 7 21 12 W 1010,6 56 0 0,0
18.01.2019 02:00:00 -0,3 -4,0 -1,5 1,1 3,5 6,6 16 9 34 18 NNW 1009,1 52 0 0,0
18.01.2019 01:00:00 -0,1 -4,7 -1,8 1,2 3,7 6,6 23 13 40 22 NNW 1007,8 62 0 0,0
18.01.2019 00:00:00 -0,1 -4,0 -1,6 1,3 3,8 6,6 23 12 38 21 NNW 1006,6 62 0 0,0
17.01.2019 23:00:00 0,0 -2,1 -0,3 1,4 4,0 6,6 21 11 31 17 NNW 1004,9 58 0 0,0
17.01.2019 22:00:00 -0,3 -0,8 -0,5 1,5 4,2 6,6 19 10 39 21 NNW 1003,3 3,3 0 0,3
17.01.2019 21:00:00 -0,1 -0,5 -0,1 1,6 4,4 6,6 14 7 29 16 N 1001,8 3,0 0 0,8
17.01.2019 20:00:00 0,3 -0,1 -0,1 2,1 4,6 6,6 7 4 24 13 NNE 999,6 2,4 0 0,7
17.01.2019 19:00:00 1,6 0,3 1,2 3,2 4,7 6,6 14 7 23 12 NE 998,1 19 0 0,0
17.01.2019 18:00:00 2,7 1,5 1,8 3,3 4,8 6,6 8 5 27 14 W 997,1 64 0 0,4
17.01.2019 17:00:00 3,2 1,5 2,2 3,7 4,9 6,6 16 9 39 21 W 996,1 66 0 0,2
17.01.2019 16:00:00 4,1 2,6 3,4 4,5 4,9 6,6 18 10 34 18 W 995,1 63 0 0,1
17.01.2019 15:00:00 4,3 2,4 3,6 4,7 4,8 6,6 28 15 52 28 W 994,5 24 0 0,0
17.01.2019 14:00:00 4,8 2,1 4,2 4,7 4,8 6,6 30 16 45 24 WSW 994,1 40 0 0,0
17.01.2019 13:00:00 5,1 1,8 4,7 4,9 4,8 6,6 34 18 58 31 WSW 994,3 28 2 0,1
17.01.2019 12:00:00 4,9 2,3 3,9 4,6 4,7 6,6 35 19 54 29 SW 994,2 14 1 0,0
17.01.2019 11:00:00 4,8 2,2 4,3 4,4 4,7 6,6 33 18 54 29 SW 994,7 25 2 0,0
17.01.2019 10:00:00 4,6 2,3 3,7 4,0 4,7 6,6 27 14 53 29 SW 994,6 14 0 0,1
17.01.2019 09:00:00 4,6 2,4 3,9 3,8 4,8 6,6 28 15 42 23 SW 994,6 26 0 0,0
17.01.2019 08:00:00 4,7 2,6 3,9 3,8 4,9 6,6 29 16 43 23 SW 994,3 30 0 0,0
17.01.2019 07:00:00 4,5 2,7 3,7 3,6 5,0 6,6 28 15 45 25 SW 994,2 33 0 0,0
17.01.2019 06:00:00 4,2 2,6 3,0 3,7 5,1 6,5 26 14 38 20 SW 994,2 29 0 0,0
17.01.2019 05:00:00 4,5 3,0 3,2 4,2 5,2 6,5 26 14 42 23 WSW 994,1 31 0 0,0
17.01.2019 04:00:00 4,4 3,0 3,5 4,3 5,2 6,5 23 12 37 20 WSW 994,2 38 0 0,1
17.01.2019 03:00:00 4,6 3,5 4,0 4,6 5,3 6,5 21 11 39 21 WSW 994,4 11 0 0,7
17.01.2019 02:00:00 4,6 3,7 4,0 4,7 5,3 6,5 27 15 58 31 SW 994,2 4,2 0 0,4
17.01.2019 01:00:00 4,7 3,6 4,1 4,8 5,4 6,5 29 16 45 24 SW 994,4 8 0 0,1
17.01.2019 00:00:00 4,6 3,6 4,0 4,8 5,5 6,5 27 15 49 26 SW 995,2 7 0 0,3
16.01.2019 23:00:00 4,6 3,7 4,1 5,0 5,5 6,5 30 16 48 26 SW 995,8 3,5 0 0,0
16.01.2019 22:00:00 4,8 3,9 4,3 5,1 5,6 6,5 30 16 47 26 SW 996,5 4,4 0 0,1
16.01.2019 21:00:00 5,2 4,0 4,6 5,3 5,6 6,5 28 15 50 27 SW 997,4 7 0 0,0
16.01.2019 20:00:00 5,4 4,5 4,9 5,5 5,7 6,5 35 19 57 31 SW 997,9 4,8 0 0,0
16.01.2019 19:00:00 5,8 4,8 5,0 5,7 5,7 6,5 29 16 50 27 SW 998,6 8 0 0,0
16.01.2019 18:00:00 5,9 5,1 5,4 5,9 5,7 6,5 27 15 54 29 SW 999,4 4,8 0 0,3
16.01.2019 17:00:00 6,3 5,5 5,8 6,1 5,7 6,5 29 16 51 28 SW 1000,0 4,6 0 0,0
16.01.2019 16:00:00 6,7 5,7 6,0 6,3 5,7 6,5 31 17 46 25 SW 1000,2 5 0 0,3
16.01.2019 15:00:00 7,0 6,2 6,5 6,5 5,6 6,5 31 17 48 26 SW 1000,4 2,3 0 0,1
16.01.2019 14:00:00 7,1 6,3 6,7 6,6 5,5 6,5 26 14 44 24 SW 1001,1 4,4 0 0,4
16.01.2019 13:00:00 7,1 6,2 6,8 6,6 5,4 6,5 23 13 45 25 SW 1001,9 6 0 0,0
16.01.2019 12:00:00 7,8 5,1 7,6 6,2 5,4 6,5 29 16 43 23 WSW 1002,5 24 0 0,0
16.01.2019 11:00:00 7,4 5,7 6,5 6,0 5,3 6,5 24 13 37 20 SW 1003,2 9 0 0,0
16.01.2019 10:00:00 7,4 5,7 6,4 6,0 5,3 6,5 27 14 39 21 WSW 1003,6 9 0 0,0
16.01.2019 09:00:00 7,5 5,3 6,9 5,8 5,3 6,5 27 14 42 23 WSW 1003,8 16 0 0,0
16.01.2019 08:00:00 7,3 5,3 6,6 5,7 5,3 6,5 23 13 35 19 WSW 1004,1 13 0 0,0
16.01.2019 07:00:00 7,1 5,1 6,4 5,7 5,2 6,5 22 12 45 24 WSW 1004,3 16 0 0,0
16.01.2019 06:00:00 7,2 5,1 6,5 5,7 5,2 6,5 23 12 41 22 WSW 1004,9 18 0 0,0
16.01.2019 05:00:00 7,2 4,9 6,5 5,7 5,2 6,6 27 15 44 24 WSW 1005,2 22 0 0,0
16.01.2019 04:00:00 7,2 5,0 6,5 5,8 5,2 6,6 29 16 45 24 WSW 1005,7 25 0 0,0
16.01.2019 03:00:00 7,1 5,2 6,4 5,8 5,1 6,6 29 16 45 24 WSW 1005,9 19 0 0,0
16.01.2019 02:00:00 7,2 5,6 6,5 5,9 5,1 6,6 27 14 49 26 W 1006,1 15 0 0,0
16.01.2019 01:00:00 7,5 5,9 6,7 6,1 5,0 6,6 27 14 44 24 W 1006,0 17 0 0,1
16.01.2019 00:00:00 7,4 6,7 6,7 6,1 4,9 6,6 28 15 45 25 W 1006,0 7 0 0,4
15.01.2019 23:00:00 7,3 6,7 6,7 6,0 4,8 6,6 27 15 40 21 W 1005,8 7 0 0,3
15.01.2019 22:00:00 7,1 6,6 6,5 5,9 4,8 6,6 19 11 34 19 W 1005,7 8 0 0,2
15.01.2019 21:00:00 7,3 6,4 6,6 5,9 4,7 6,6 25 13 43 23 W 1005,8 8 0 0,0
15.01.2019 20:00:00 7,5 6,2 6,7 5,8 4,6 6,6 23 12 41 22 W 1005,7 20 0 0,0
15.01.2019 19:00:00 7,5 6,3 6,8 5,8 4,4 6,6 23 12 43 23 W 1005,5 17 0 0,0
15.01.2019 18:00:00 7,3 6,5 6,6 5,7 4,3 6,6 26 14 46 25 W 1005,3 17 0 0,1
15.01.2019 17:00:00 7,1 6,4 6,4 5,6 4,2 6,6 29 15 50 27 W 1005,2 7 0 0,4
15.01.2019 16:00:00 7,0 6,2 6,3 5,6 4,0 6,6 31 17 54 29 W 1004,9 4,6 0 0,3
15.01.2019 15:00:00 6,9 6,0 6,3 5,5 3,8 6,6 31 17 53 29 W 1005,2 3,4 0 0,2
15.01.2019 14:00:00 7,0 5,9 6,4 5,3 3,6 6,6 33 18 52 28 W 1005,6 6 0 0,2
15.01.2019 13:00:00 6,7 5,7 6,0 4,9 3,4 6,6 26 14 43 23 W 1006,4 16 0 0,2
15.01.2019 12:00:00 6,5 5,1 5,7 4,5 3,1 6,6 27 14 40 22 WSW 1007,1 19 0 0,4
15.01.2019 11:00:00 6,3 4,5 5,5 4,1 2,9 6,6 24 13 36 20 W 1008,2 14 0 0,0
15.01.2019 10:00:00 6,1 4,1 5,5 3,5 2,8 6,6 22 12 36 19 W 1008,5 22 0 0,0
15.01.2019 09:00:00 5,4 3,7 4,5 2,6 2,7 6,6 21 11 32 17 W 1008,8 23 0 0,0
15.01.2019 08:00:00 4,5 2,8 3,2 2,2 2,6 6,7 21 11 38 21 W 1008,7 35 0 0,0
15.01.2019 07:00:00 4,3 3,1 3,5 2,3 2,5 6,7 24 13 46 25 W 1008,6 14 0 0,8
15.01.2019 06:00:00 4,7 1,4 3,8 1,6 2,5 6,7 29 16 47 25 W 1009,0 33 0 0,0
15.01.2019 05:00:00 4,6 0,9 3,6 0,7 2,5 6,7 31 17 45 24 W 1009,5 35 0 0,0
15.01.2019 04:00:00 3,7 0,8 2,1 0,7 2,5 6,7 26 14 38 20 W 1010,2 31 0 0,0
15.01.2019 03:00:00 2,9 -0,2 1,0 0,7 2,5 6,7 20 11 37 20 W 1010,7 32 0 0,0
15.01.2019 02:00:00 3,5 -0,5 2,2 0,7 2,6 6,7 27 14 44 24 WNW 1010,7 44 0 0,0
15.01.2019 01:00:00 3,0 -1,2 1,1 0,7 2,6 6,7 22 12 39 21 W 1010,7 29 0 0,0
15.01.2019 00:00:00 2,8 -1,8 1,1 0,7 2,7 6,7 26 14 40 22 WNW 1010,8 30 0 0,0
14.01.2019 23:00:00 2,1 -2,3 0,0 0,7 2,7 6,7 19 11 31 17 WNW 1010,2 31 0 0,0
14.01.2019 22:00:00 1,8 -2,5 0,0 0,7 2,8 6,7 18 10 35 19 W 1010,0 33 0 0,0
14.01.2019 21:00:00 2,2 -2,9 0,5 0,8 2,9 6,7 25 14 42 23 WNW 1009,3 40 0 0,0
14.01.2019 20:00:00 1,8 -2,7 0,8 0,8 2,9 6,7 23 12 36 19 WNW 1008,9 37 0 0,0
14.01.2019 19:00:00 1,3 -3,1 -0,8 0,8 3,0 6,7 21 12 32 17 WNW 1008,5 35 0 0,0
14.01.2019 18:00:00 1,7 -4,0 -0,4 0,9 3,1 6,7 19 10 35 19 WNW 1007,7 38 0 0,0
14.01.2019 17:00:00 1,2 -3,2 -0,6 1,0 3,2 6,7 20 11 43 23 WNW 1007,0 38 0 0,0
14.01.2019 16:00:00 2,2 -4,0 0,7 1,3 3,3 6,7 28 15 50 27 NW 1006,4 27 44 0,0
14.01.2019 15:00:00 2,5 -4,0 2,7 1,7 3,3 6,7 27 14 56 30 NW 1005,7 23 59 0,0
14.01.2019 14:00:00 2,5 -4,4 3,0 2,0 3,2 6,7 30 16 53 29 WNW 1004,7 10 60 0,0
14.01.2019 13:00:00 2,4 -3,8 4,0 1,4 3,3 6,6 29 16 57 31 NW 1004,2 17 29 0,0
14.01.2019 12:00:00 1,8 -3,6 1,2 1,0 3,3 6,6 29 16 52 28 NW 1003,4 53 26 0,0
14.01.2019 11:00:00 1,5 -3,5 1,2 1,0 3,4 6,6 30 16 53 28 WNW 1002,9 47 52 0,0
14.01.2019 10:00:00 1,3 -3,3 0,5 1,0 3,6 6,6 26 14 48 26 WNW 1002,4 37 37 0,0
14.01.2019 09:00:00 1,3 -3,6 -0,3 1,0 3,7 6,6 28 15 49 27 WNW 1001,5 49 0 0,0
14.01.2019 08:00:00 1,6 -4,1 0,1 1,0 3,9 6,6 27 15 61 33 WNW 1000,7 51 0 0,0
14.01.2019 07:00:00 2,3 -4,3 0,8 1,2 4,1 6,6 32 17 58 31 NW 999,8 44 0 0,0
14.01.2019 06:00:00 2,3 -3,0 0,7 1,5 4,2 6,6 26 14 67 36 WNW 999,0 34 0 0,0
14.01.2019 05:00:00 3,0 -2,5 1,9 1,9 4,4 6,6 36 19 67 36 NW 998,4 50 0 0,0
14.01.2019 04:00:00 3,7 -3,1 2,0 1,8 4,6 6,6 27 15 54 29 WNW 997,0 33 0 0,0
14.01.2019 03:00:00 3,4 -2,9 1,2 1,9 4,9 6,6 29 16 58 31 NW 996,2 35 0 0,0
14.01.2019 02:00:00 3,6 -2,3 1,6 2,5 5,1 6,6 32 17 50 27 NW 994,8 33 0 0,0
14.01.2019 01:00:00 3,8 -1,0 2,4 3,2 5,3 6,6 32 18 52 28 NW 993,3 22 0 0,0
14.01.2019 00:00:00 4,3 -0,3 2,7 3,9 5,4 6,6 29 16 59 32 WNW 991,6 21 0 0,0
13.01.2019 23:00:00 5,0 0,0 3,9 4,2 5,6 6,6 34 19 66 35 NW 990,5 21 0 0,0
13.01.2019 22:00:00 5,5 0,2 3,9 4,7 5,7 6,6 40 22 74 40 NW 989,4 24 0 0,0
13.01.2019 21:00:00 6,9 2,9 5,3 5,5 5,7 6,6 33 18 57 31 WNW 988,1 33 0 0,7
13.01.2019 20:00:00 6,9 4,2 5,4 5,7 5,8 6,6 34 18 66 35 WNW 987,3 25 0 0,4
13.01.2019 19:00:00 7,4 3,6 6,4 5,9 5,8 6,6 41 22 64 35 WNW 987,3 27 0 0,0
13.01.2019 18:00:00 7,3 4,2 6,4 6,1 5,9 6,6 39 21 61 33 WNW 987,1 33 0 0,1
13.01.2019 17:00:00 7,7 4,1 6,4 6,4 5,8 6,6 35 19 67 36 W 987,4 31 0 0,0
13.01.2019 16:00:00 8,6 5,7 7,2 7,0 5,7 6,6 39 21 60 33 W 988,1 26 0 0,0
13.01.2019 15:00:00 8,5 6,7 7,6 7,2 5,6 6,6 29 16 55 30 W 989,1 24 0 0,1
13.01.2019 14:00:00 8,5 7,0 8,0 7,2 5,5 6,6 29 15 49 26 W 990,8 29 0 0,0
13.01.2019 13:00:00 8,4 7,6 8,0 7,0 5,3 6,6 29 16 46 25 W 991,8 11 0 0,2
13.01.2019 12:00:00 8,1 7,4 7,7 6,7 5,2 6,6 26 14 45 24 W 992,9 27 0 0,3
13.01.2019 11:00:00 7,6 7,1 7,3 6,2 5,1 6,6 23 12 38 20 WSW 993,9 3,9 0 0,5
13.01.2019 10:00:00 7,0 6,4 6,4 5,7 5,0 6,6 20 11 35 19 WSW 995,2 6 0 0,3
13.01.2019 09:00:00 6,4 5,8 5,8 5,4 4,9 6,6 18 10 37 20 SW 996,7 6 0 0,2
13.01.2019 08:00:00 6,4 5,5 5,6 5,3 4,9 6,6 21 12 39 21 WSW 998,0 26 0 0,2
13.01.2019 07:00:00 6,5 5,5 5,6 5,2 4,8 6,6 27 15 37 20 W 999,0 17 0 0,5
13.01.2019 06:00:00 6,1 5,3 5,4 5,0 4,8 6,6 21 11 40 21 W 1000,2 6 0 0,1
13.01.2019 05:00:00 6,2 4,6 5,5 4,7 4,8 6,6 21 12 34 19 W 1001,0 26 0 0,0
13.01.2019 04:00:00 6,1 4,5 5,1 4,7 4,8 6,6 21 12 37 20 W 1001,3 31 0 0,0
13.01.2019 03:00:00 5,9 4,5 5,0 4,6 4,8 6,6 20 11 35 19 W 1001,7 27 0 0,0
13.01.2019 02:00:00 5,9 4,3 4,9 4,7 4,8 6,6 20 11 35 19 W 1002,0 35 0 0,0
13.01.2019 01:00:00 5,7 4,4 5,0 4,7 4,8 6,6 21 11 31 17 W 1002,2 33 0 0,0
13.01.2019 00:00:00 5,4 3,8 4,7 4,6 4,9 6,6 21 12 32 17 W 1002,1 42 0 0,0
12.01.2019 23:00:00 5,1 3,6 3,9 4,8 4,9 6,6 22 12 40 21 W 1002,4 48 0 0,1
12.01.2019 22:00:00 5,9 4,4 5,0 4,9 4,9 6,6 26 14 39 21 W 1002,0 19 0 0,1
12.01.2019 21:00:00 5,5 4,2 4,6 5,0 4,9 6,6 29 16 46 25 W 1002,2 14 0 1,2
12.01.2019 20:00:00 6,4 4,7 5,4 5,3 4,8 6,6 29 16 53 28 W 1002,6 15 0 0,1
12.01.2019 19:00:00 6,7 4,6 5,7 5,2 4,8 6,6 31 17 51 28 W 1002,5 27 0 0,2
12.01.2019 18:00:00 6,2 4,9 5,5 5,2 4,8 6,6 24 13 41 22 W 1002,9 24 0 0,0
12.01.2019 17:00:00 6,6 4,6 5,6 5,2 4,7 6,6 27 14 53 29 W 1003,3 21 0 0,0
12.01.2019 16:00:00 6,9 5,0 5,9 5,5 4,6 6,6 26 14 37 20 W 1003,8 31 0 0,0
12.01.2019 15:00:00 6,7 5,6 6,0 5,5 4,5 6,6 20 11 35 19 W 1004,4 70 0 0,6
12.01.2019 14:00:00 6,0 5,6 5,7 5,3 4,4 6,6 25 13 42 23 SW 1005,0 3,6 0 1,5
12.01.2019 13:00:00 5,6 5,0 5,2 5,2 4,3 6,6 23 13 39 21 SW 1006,6 7 0 0,4

tt = Température de l'air
td = dewpoint
tt 5cm = Température de l'air 5cm
tt -5cm = Température de l'air -5cm
tt -20cm = Température de l'air -20cm
tt -100cm = Température de l'air -100cm
ff = Vitesse du vent
fx = gusts
dd = Direction du vent
ppp = reduced air pressure
vv = visibility
sd = Ensoleillement
rr = Quantités de précipitations

stations d'obs. à proximité